ITY1734 LIML-LICG

Flight info

Callsign ITY1734
Flight time 1h 25m
Altitude 35000
Route LOGDI DCT IPLUB DCT PRT DCT MEDAL DCT BETOT DCT ADUKA DCT MEGAN DCT ROBET
Aircraft A21N/M-SDE2E3FGHIRWXY/LB1

Departure

Time 2026-04-26 15:39
Airport Milano Linate Airport (LIML)

Arrival

Time 2026-04-26 17:04
Airport Pantelleria Airport (LICG)
Time Latitude Longitude Altitude Speed Heading
2026-04-26 15:18 45.45652 9.27884 365 ft 0 kts 90°
2026-04-26 15:31 45.45652 9.27894 365 ft 0 kts 89°
2026-04-26 15:32 45.45652 9.27920 367 ft 4 kts 89°
2026-04-26 15:32 45.45626 9.27972 366 ft 7 kts 152°
2026-04-26 15:32 45.45567 9.27981 366 ft 10 kts 178°
2026-04-26 15:33 45.45490 9.27983 365 ft 12 kts 180°
2026-04-26 15:33 45.45403 9.27982 365 ft 13 kts 193°
2026-04-26 15:33 45.45318 9.27932 367 ft 14 kts 206°
2026-04-26 15:33 45.45230 9.27873 369 ft 14 kts 201°
2026-04-26 15:34 45.45130 9.27874 365 ft 15 kts 173°
2026-04-26 15:34 45.45025 9.27893 365 ft 15 kts 173°
2026-04-26 15:34 45.44916 9.27913 365 ft 16 kts 173°
2026-04-26 15:34 45.44807 9.27955 367 ft 17 kts 173°
2026-04-26 15:35 45.44690 9.27972 371 ft 17 kts 174°
2026-04-26 15:35 45.44570 9.27975 369 ft 18 kts 180°
2026-04-26 15:35 45.44446 9.27979 366 ft 18 kts 174°
2026-04-26 15:35 45.44320 9.27996 366 ft 18 kts 174°
2026-04-26 15:36 45.44191 9.28013 368 ft 19 kts 174°
2026-04-26 15:36 45.44059 9.28031 368 ft 19 kts 175°
2026-04-26 15:36 45.43924 9.28048 370 ft 20 kts 175°
2026-04-26 15:36 45.43784 9.28064 366 ft 20 kts 179°
2026-04-26 15:37 45.43642 9.28069 368 ft 21 kts 177°
2026-04-26 15:37 45.43506 9.28080 366 ft 17 kts 190°
2026-04-26 15:37 45.43461 9.27970 370 ft 13 kts 239°
2026-04-26 15:37 45.43452 9.27848 375 ft 14 kts 326°
2026-04-26 15:38 45.43544 9.27805 367 ft 15 kts 356°
2026-04-26 15:38 45.43788 9.27781 368 ft 72 kts 356°
2026-04-26 15:38 45.44537 9.27703 370 ft 140 kts 355°
2026-04-26 15:38 45.45706 9.27577 451 ft 179 kts 356°
2026-04-26 15:39 45.46894 9.27527 1148 ft 174 kts 10°
2026-04-26 15:39 45.48101 9.28054 1660 ft 185 kts 12°
2026-04-26 15:39 45.49388 9.27987 2239 ft 199 kts 356°
2026-04-26 15:39 45.50348 9.28134 2430 ft 213 kts 15°
2026-04-26 15:40 45.52182 9.29409 3007 ft 232 kts 52°
2026-04-26 15:40 45.52846 9.31518 3419 ft 246 kts 86°
2026-04-26 15:40 45.52523 9.33941 3857 ft 259 kts 120°
2026-04-26 15:40 45.51338 9.35905 4509 ft 265 kts 137°
2026-04-26 15:41 45.49991 9.37732 5357 ft 269 kts 137°
2026-04-26 15:41 45.48567 9.39452 6111 ft 270 kts 141°
2026-04-26 15:41 45.47104 9.41159 6881 ft 273 kts 141°
2026-04-26 15:41 45.45627 9.42883 7578 ft 276 kts 141°
2026-04-26 15:42 45.44135 9.44628 8286 ft 280 kts 141°
2026-04-26 15:42 45.42625 9.46403 9012 ft 284 kts 141°
2026-04-26 15:42 45.41093 9.48202 9714 ft 287 kts 141°
2026-04-26 15:42 45.39537 9.50019 10359 ft 293 kts 141°
2026-04-26 15:43 45.37915 9.51913 10683 ft 310 kts 141°
2026-04-26 15:43 45.36201 9.53923 10942 ft 329 kts 141°
2026-04-26 15:43 45.32550 9.58191 11981 ft 345 kts 141°
2026-04-26 15:44 45.30680 9.60363 12627 ft 349 kts 141°
2026-04-26 15:44 45.26870 9.64776 13905 ft 357 kts 141°
2026-04-26 15:44 45.24933 9.67024 14468 ft 361 kts 141°
2026-04-26 15:45 45.21016 9.71591 15594 ft 368 kts 141°
2026-04-26 15:45 45.19054 9.73874 16146 ft 372 kts 141°
2026-04-26 15:46 45.15014 9.78566 17265 ft 379 kts 141°
2026-04-26 15:46 45.12963 9.80943 17821 ft 382 kts 141°
2026-04-26 15:46 45.10863 9.83365 18376 ft 386 kts 141°
2026-04-26 15:46 45.09478 9.84961 18672 ft 388 kts 141°
2026-04-26 15:47 45.06691 9.88169 19319 ft 392 kts 141°
2026-04-26 15:47 45.02435 9.93053 20273 ft 397 kts 141°
2026-04-26 15:47 45.00290 9.95533 20746 ft 399 kts 141°
2026-04-26 15:48 44.98136 9.98025 21217 ft 402 kts 141°
2026-04-26 15:48 44.95960 10.00533 21673 ft 404 kts 141°
2026-04-26 15:48 44.93773 10.03040 22147 ft 407 kts 142°
2026-04-26 15:48 44.91565 10.05558 22602 ft 410 kts 142°
2026-04-26 15:49 44.89337 10.08101 23045 ft 412 kts 142°
2026-04-26 15:49 44.87107 10.10660 23479 ft 415 kts 142°
2026-04-26 15:49 44.84863 10.13231 23877 ft 417 kts 142°
2026-04-26 15:49 44.82599 10.15815 24233 ft 420 kts 142°
2026-04-26 15:50 44.80328 10.18411 24599 ft 422 kts 142°
2026-04-26 15:50 44.78044 10.21016 24956 ft 424 kts 142°
2026-04-26 15:50 44.75744 10.23637 25307 ft 426 kts 142°
2026-04-26 15:50 44.73432 10.26257 25660 ft 428 kts 142°
2026-04-26 15:51 44.71100 10.28892 25972 ft 431 kts 142°
2026-04-26 15:51 44.68757 10.31534 26347 ft 434 kts 142°
2026-04-26 15:51 44.66399 10.34195 26698 ft 436 kts 142°
2026-04-26 15:51 44.64027 10.36863 27013 ft 438 kts 142°
2026-04-26 15:52 44.61642 10.39552 27325 ft 440 kts 142°
2026-04-26 15:52 44.59251 10.42259 27644 ft 442 kts 142°
2026-04-26 15:52 44.56853 10.44975 27963 ft 445 kts 142°
2026-04-26 15:52 44.55261 10.46783 28156 ft 446 kts 142°
2026-04-26 15:53 44.52025 10.50456 28540 ft 448 kts 142°
2026-04-26 15:53 44.49584 10.53205 28839 ft 450 kts 142°
2026-04-26 15:53 44.47137 10.55948 29123 ft 452 kts 142°
2026-04-26 15:53 44.44677 10.58704 29403 ft 455 kts 142°
2026-04-26 15:54 44.42196 10.61483 29652 ft 457 kts 142°
2026-04-26 15:54 44.39714 10.64267 29904 ft 459 kts 142°
2026-04-26 15:54 44.37208 10.67077 30170 ft 462 kts 142°
2026-04-26 15:54 44.34700 10.69885 30462 ft 462 kts 142°
2026-04-26 15:55 44.32189 10.72689 30718 ft 463 kts 142°
2026-04-26 15:55 44.29657 10.75501 30882 ft 466 kts 142°
2026-04-26 15:55 44.27115 10.78330 31077 ft 469 kts 142°
2026-04-26 15:55 44.24526 10.81111 31288 ft 470 kts 146°
2026-04-26 15:56 44.21790 10.83610 31488 ft 471 kts 148°
2026-04-26 15:56 44.19027 10.86077 31742 ft 471 kts 148°
2026-04-26 15:56 44.16272 10.88540 31975 ft 470 kts 148°
2026-04-26 15:56 44.13516 10.91005 32231 ft 470 kts 148°
2026-04-26 15:57 44.10764 10.93468 32484 ft 470 kts 148°
2026-04-26 15:57 44.08013 10.95924 32672 ft 469 kts 148°
2026-04-26 15:57 44.05265 10.98381 32913 ft 469 kts 148°
2026-04-26 15:57 44.03455 11.00000 33070 ft 468 kts 148°
2026-04-26 15:58 43.99789 11.03278 33300 ft 468 kts 148°
2026-04-26 15:58 43.97055 11.05722 33485 ft 468 kts 148°
2026-04-26 15:58 43.94316 11.08162 33698 ft 467 kts 148°
2026-04-26 15:58 43.91510 11.10420 33864 ft 465 kts 158°
2026-04-26 15:59 43.88427 11.11661 33981 ft 461 kts 173°
2026-04-26 15:59 43.85248 11.12157 34158 ft 459 kts 177°
2026-04-26 15:59 43.82072 11.12551 34320 ft 458 kts 177°
2026-04-26 15:59 43.78894 11.12971 34482 ft 458 kts 176°
2026-04-26 16:00 43.75726 11.13434 34630 ft 457 kts 176°
2026-04-26 16:00 43.72561 11.13919 34781 ft 457 kts 176°
2026-04-26 16:00 43.69407 11.14405 34927 ft 456 kts 176°
2026-04-26 16:00 43.66290 11.14879 35065 ft 456 kts 176°
2026-04-26 16:01 43.63098 11.15362 35155 ft 456 kts 176°
2026-04-26 16:01 43.56841 11.16313 35150 ft 455 kts 176°
2026-04-26 16:02 43.50543 11.17266 35136 ft 455 kts 176°
2026-04-26 16:02 43.44246 11.18214 35133 ft 455 kts 176°
2026-04-26 16:03 43.37950 11.19157 35135 ft 455 kts 176°
2026-04-26 16:03 43.31647 11.20096 35135 ft 456 kts 176°
2026-04-26 16:04 43.25349 11.21047 35125 ft 454 kts 176°
2026-04-26 16:04 43.19054 11.21996 35135 ft 455 kts 176°
2026-04-26 16:05 43.12759 11.22946 35132 ft 455 kts 176°
2026-04-26 16:05 43.06463 11.23876 35131 ft 456 kts 176°
2026-04-26 16:06 43.00185 11.24805 35136 ft 455 kts 176°
2026-04-26 16:06 42.93899 11.25746 35138 ft 455 kts 176°
2026-04-26 16:07 42.87618 11.26678 35134 ft 455 kts 176°
2026-04-26 16:07 42.81328 11.27605 35140 ft 453 kts 176°
2026-04-26 16:08 42.75049 11.28527 35141 ft 452 kts 176°
2026-04-26 16:08 42.68766 11.29455 35141 ft 452 kts 176°
2026-04-26 16:09 42.63549 11.30224 35142 ft 452 kts 176°
2026-04-26 16:09 42.56238 11.31297 35143 ft 451 kts 176°
2026-04-26 16:10 42.51033 11.32053 35145 ft 452 kts 176°
2026-04-26 16:10 42.44773 11.32976 35141 ft 453 kts 176°
2026-04-26 16:11 42.38516 11.33895 35146 ft 454 kts 176°
2026-04-26 16:11 42.32257 11.34802 35145 ft 453 kts 176°
2026-04-26 16:12 42.26002 11.35704 35148 ft 453 kts 176°
2026-04-26 16:12 42.16598 11.37066 35151 ft 454 kts 176°
2026-04-26 16:13 42.10340 11.37979 35151 ft 454 kts 176°
2026-04-26 16:13 42.04075 11.38891 35145 ft 453 kts 176°
2026-04-26 16:14 41.97810 11.39793 35150 ft 452 kts 176°
2026-04-26 16:15 41.88412 11.41135 35151 ft 453 kts 176°
2026-04-26 16:15 41.82149 11.42040 35147 ft 453 kts 176°
2026-04-26 16:16 41.72730 11.43384 35154 ft 454 kts 176°
2026-04-26 16:16 41.66453 11.44278 35153 ft 453 kts 176°
2026-04-26 16:17 41.60173 11.45169 35149 ft 453 kts 175°
2026-04-26 16:17 41.53886 11.46064 35155 ft 452 kts 176°
2026-04-26 16:18 41.44470 11.47402 35157 ft 454 kts 176°
2026-04-26 16:19 41.35043 11.48726 35155 ft 454 kts 175°
2026-04-26 16:20 41.25625 11.50054 35153 ft 452 kts 175°
2026-04-26 16:20 41.16205 11.51378 35153 ft 455 kts 175°
2026-04-26 16:21 41.09930 11.52258 35152 ft 454 kts 175°
2026-04-26 16:21 41.03655 11.53141 35152 ft 453 kts 175°
2026-04-26 16:22 40.97367 11.54014 35153 ft 453 kts 175°
2026-04-26 16:22 40.91081 11.54892 35160 ft 453 kts 175°
2026-04-26 16:23 40.84795 11.55766 35157 ft 454 kts 175°
2026-04-26 16:23 40.78512 11.56640 35157 ft 454 kts 175°
2026-04-26 16:24 40.72223 11.57507 35160 ft 456 kts 175°
2026-04-26 16:24 40.65933 11.58375 35166 ft 455 kts 175°
2026-04-26 16:25 40.59652 11.59247 35171 ft 455 kts 175°
2026-04-26 16:25 40.53359 11.60103 35162 ft 454 kts 175°
2026-04-26 16:26 40.48122 11.60821 35161 ft 454 kts 175°
2026-04-26 16:26 40.40765 11.61836 35163 ft 453 kts 175°
2026-04-26 16:27 40.34469 11.62700 35160 ft 454 kts 175°
2026-04-26 16:27 40.28199 11.63562 35177 ft 452 kts 174°
2026-04-26 16:28 40.21944 11.64415 35171 ft 452 kts 174°
2026-04-26 16:28 40.15691 11.65270 35167 ft 452 kts 174°
2026-04-26 16:29 40.09484 11.66113 35169 ft 453 kts 174°
2026-04-26 16:29 40.03196 11.66965 35165 ft 452 kts 174°
2026-04-26 16:30 39.96946 11.67814 35165 ft 451 kts 174°
2026-04-26 16:30 39.90742 11.68648 35164 ft 452 kts 174°
2026-04-26 16:31 39.84495 11.69494 35168 ft 450 kts 174°
2026-04-26 16:31 39.78259 11.70333 35167 ft 449 kts 174°
2026-04-26 16:32 39.73030 11.71027 35170 ft 450 kts 174°
2026-04-26 16:32 39.65784 11.72003 35168 ft 449 kts 174°
2026-04-26 16:33 39.59549 11.72837 35171 ft 449 kts 174°
2026-04-26 16:33 39.53299 11.73675 35165 ft 449 kts 174°
2026-04-26 16:34 39.47060 11.74507 35165 ft 449 kts 174°
2026-04-26 16:34 39.40830 11.75337 35172 ft 449 kts 174°
2026-04-26 16:35 39.34600 11.76166 35167 ft 449 kts 174°
2026-04-26 16:35 39.28345 11.76424 35167 ft 449 kts 180°
2026-04-26 16:36 39.22101 11.76460 35107 ft 447 kts 180°
2026-04-26 16:36 39.15864 11.76487 35002 ft 449 kts 180°
2026-04-26 16:37 39.09608 11.76513 35098 ft 450 kts 180°
2026-04-26 16:37 39.04405 11.76545 35193 ft 450 kts 180°
2026-04-26 16:38 38.97094 11.76587 35173 ft 449 kts 180°
2026-04-26 16:38 38.90836 11.76622 35171 ft 449 kts 180°
2026-04-26 16:39 38.84587 11.76652 35172 ft 449 kts 180°
2026-04-26 16:39 38.78344 11.76685 35092 ft 444 kts 180°
2026-04-26 16:40 38.75272 11.76702 34787 ft 438 kts 180°
2026-04-26 16:40 38.72241 11.76718 34531 ft 435 kts 180°
2026-04-26 16:40 38.69225 11.76732 34217 ft 431 kts 180°
2026-04-26 16:40 38.66241 11.76744 33715 ft 427 kts 180°
2026-04-26 16:41 38.63277 11.76760 33211 ft 424 kts 180°
2026-04-26 16:41 38.60342 11.76777 32724 ft 421 kts 180°
2026-04-26 16:41 38.57422 11.76788 32216 ft 418 kts 180°
2026-04-26 16:41 38.54526 11.76796 31726 ft 415 kts 180°
2026-04-26 16:42 38.51645 11.76809 31232 ft 413 kts 180°
2026-04-26 16:42 38.48778 11.76826 30740 ft 411 kts 180°
2026-04-26 16:42 38.45924 11.76842 30273 ft 409 kts 180°
2026-04-26 16:42 38.43086 11.76856 29711 ft 407 kts 180°
2026-04-26 16:43 38.40263 11.76870 29165 ft 405 kts 180°
2026-04-26 16:43 38.37451 11.76883 28660 ft 402 kts 179°
2026-04-26 16:43 38.34662 11.76898 28182 ft 399 kts 179°
2026-04-26 16:43 38.31894 11.76913 27715 ft 396 kts 179°
2026-04-26 16:44 38.29180 11.76928 27250 ft 394 kts 180°
2026-04-26 16:44 38.26415 11.76941 26770 ft 391 kts 180°
2026-04-26 16:44 38.23735 11.76956 26293 ft 389 kts 180°
2026-04-26 16:44 38.21033 11.76969 25841 ft 388 kts 180°
2026-04-26 16:45 38.18341 11.76978 25393 ft 385 kts 180°
2026-04-26 16:45 38.15674 11.76993 24948 ft 383 kts 179°
2026-04-26 16:45 38.13008 11.77008 24486 ft 382 kts 179°
2026-04-26 16:45 38.10348 11.77023 24012 ft 381 kts 179°
2026-04-26 16:46 38.07698 11.77036 23528 ft 380 kts 179°
2026-04-26 16:46 38.05057 11.77052 22947 ft 379 kts 184°
2026-04-26 16:46 38.02431 11.77062 22488 ft 377 kts 184°
2026-04-26 16:46 37.99812 11.77074 22028 ft 375 kts 184°
2026-04-26 16:47 37.97213 11.77086 21561 ft 373 kts 184°
2026-04-26 16:47 37.94625 11.77100 21107 ft 372 kts 184°
2026-04-26 16:47 37.92043 11.77112 20647 ft 370 kts 184°
2026-04-26 16:47 37.89469 11.77122 20221 ft 368 kts 184°
2026-04-26 16:48 37.86917 11.77134 19800 ft 366 kts 183°
2026-04-26 16:48 37.84370 11.77142 19380 ft 365 kts 183°
2026-04-26 16:48 37.81829 11.77155 18962 ft 365 kts 183°
2026-04-26 16:48 37.79285 11.77166 18555 ft 365 kts 183°
2026-04-26 16:49 37.76759 11.77181 18121 ft 361 kts 182°
2026-04-26 16:49 37.74267 11.77198 17691 ft 356 kts 182°
2026-04-26 16:49 37.71800 11.77211 17268 ft 352 kts 182°
2026-04-26 16:49 37.69370 11.77222 16847 ft 348 kts 182°
2026-04-26 16:50 37.66968 11.77229 16479 ft 343 kts 182°
2026-04-26 16:50 37.64598 11.77240 16114 ft 338 kts 182°
2026-04-26 16:50 37.62263 11.77252 15753 ft 333 kts 182°
2026-04-26 16:50 37.60736 11.77262 15519 ft 330 kts 182°
2026-04-26 16:51 37.57667 11.77278 15026 ft 329 kts 182°
2026-04-26 16:51 37.55371 11.77288 14661 ft 330 kts 182°
2026-04-26 16:51 37.53076 11.77298 14304 ft 331 kts 182°
2026-04-26 16:51 37.50773 11.77310 13948 ft 331 kts 182°
2026-04-26 16:52 37.49244 11.77318 13682 ft 331 kts 182°
2026-04-26 16:52 37.47690 11.77327 13412 ft 332 kts 182°
2026-04-26 16:52 37.44628 11.77340 12918 ft 331 kts 181°
2026-04-26 16:52 37.42327 11.77351 12554 ft 331 kts 181°
2026-04-26 16:53 37.40023 11.77363 12189 ft 331 kts 181°
2026-04-26 16:53 37.37719 11.77372 11830 ft 330 kts 181°
2026-04-26 16:53 37.35436 11.77381 11457 ft 326 kts 181°
2026-04-26 16:53 37.33176 11.77393 11096 ft 322 kts 181°
2026-04-26 16:54 37.30945 11.77405 10745 ft 318 kts 181°
2026-04-26 16:54 37.28762 11.77418 10541 ft 309 kts 181°
2026-04-26 16:54 37.26642 11.77428 10382 ft 299 kts 181°
2026-04-26 16:54 37.24581 11.77439 10095 ft 294 kts 181°
2026-04-26 16:55 37.22538 11.77447 9706 ft 293 kts 181°
2026-04-26 16:55 37.20508 11.77457 9320 ft 291 kts 181°
2026-04-26 16:55 37.18494 11.77467 8957 ft 289 kts 181°
2026-04-26 16:55 37.16476 11.77475 8610 ft 290 kts 181°
2026-04-26 16:56 37.12441 11.77494 7943 ft 287 kts 181°
2026-04-26 16:56 37.10453 11.77504 7623 ft 285 kts 181°
2026-04-26 16:56 37.08468 11.77516 7294 ft 285 kts 181°
2026-04-26 16:57 37.06479 11.77527 6960 ft 286 kts 181°
2026-04-26 16:57 37.04497 11.77537 6621 ft 284 kts 181°
2026-04-26 16:57 37.00576 11.77555 5920 ft 279 kts 181°
2026-04-26 16:58 36.98645 11.77563 5602 ft 277 kts 181°
2026-04-26 16:58 36.97368 11.77570 5384 ft 277 kts 180°
2026-04-26 16:58 36.92869 11.77590 4512 ft 276 kts 180°
2026-04-26 16:59 36.90956 11.77600 4160 ft 274 kts 180°
2026-04-26 16:59 36.87281 11.77619 3957 ft 249 kts 180°
2026-04-26 17:00 36.84014 11.77634 3967 ft 231 kts 180°
2026-04-26 17:00 36.80786 11.77654 3999 ft 231 kts 178°
2026-04-26 17:00 36.79281 11.78090 3991 ft 211 kts 148°
2026-04-26 17:01 36.78425 11.79402 3777 ft 193 kts 106°
2026-04-26 17:01 36.78417 11.81029 3344 ft 186 kts 75°
2026-04-26 17:01 36.78762 11.82505 3178 ft 166 kts 72°
2026-04-26 17:01 36.79062 11.83820 2779 ft 154 kts 74°
2026-04-26 17:02 36.79323 11.85101 2415 ft 150 kts 75°
2026-04-26 17:02 36.79599 11.86352 2224 ft 149 kts 75°
2026-04-26 17:02 36.79844 11.87606 1980 ft 147 kts 78°
2026-04-26 17:02 36.80047 11.88860 1905 ft 148 kts 79°
2026-04-26 17:03 36.80273 11.90108 1736 ft 146 kts 75°
2026-04-26 17:03 36.80583 11.91309 1428 ft 146 kts 74°
2026-04-26 17:03 36.80785 11.92545 1298 ft 145 kts 79°
2026-04-26 17:03 36.81033 11.93760 1063 ft 145 kts 75°
2026-04-26 17:04 36.81284 11.94974 859 ft 144 kts 76°
2026-04-26 17:04 36.81506 11.96190 662 ft 142 kts 77°
2026-04-26 17:04 36.81691 11.97148 657 ft 56 kts 76°
2026-04-26 17:04 36.81747 11.97458 667 ft 16 kts 79°
2026-04-26 17:05 36.81774 11.97512 669 ft 11 kts 259°
2026-04-26 17:05 36.81756 11.97419 666 ft 11 kts 256°
2026-04-26 17:05 36.81736 11.97319 662 ft 12 kts 254°
2026-04-26 17:05 36.81712 11.97215 658 ft 13 kts 254°
2026-04-26 17:06 36.81693 11.97105 657 ft 13 kts 277°
2026-04-26 17:06 36.81733 11.96995 649 ft 13 kts 297°
2026-04-26 17:06 36.81773 11.96895 641 ft 13 kts 296°
2026-04-26 17:06 36.81800 11.96824 640 ft 10 kts 294°
2026-04-26 17:07 36.81802 11.96817 639 ft 0 kts 294°
2026-04-26 17:07 36.81804 11.96812 645 ft 2 kts 295°
2026-04-26 17:07 36.81820 11.96807 641 ft 3 kts
2026-04-26 17:07 36.81828 11.96818 643 ft 0 kts 79°